cliquez pour ajouter le site Runraid à vos favoris  English version (google)  Retour à l'accueil Ecrire à l'auteur du site Runraid : Michel Jourdan



Les prochaines courses


Les derniers résultats

cliquez pour visualiser la page complète relatant la chronologie des éruptions du Piton de la Fournaise
éruptions Piton de la Fournaise


Ile de La Réunion

 Diagonale des Fous 

Nouveautés du site

Ecrire au créateur du site : Michel Jourdan
Contact


2014-07-13 - Dodo Trail 25 km

Pour consulter le palmarès d'un coureur, un clic sur son nom !

Vous avez des remarques, corrections, ... sur ces résultats , un clic sur --> pour me transmettre toute information concernant les classements


Dodo Trail 25 km - 2014 : classement des 253 finishers
Place Nom Temps Cat. Club Sexe Clt/cat.
Place Nom Temps Cat. Club Sexe Clt/cat.
1 PERRAULT Gerry 02:28:26 V1M REU M 1294
2 CADET Jean Marie 02:31:24 SEM REU M 1 SEM 1062
3 VIDOT Yannick 02:44:03 SEM REU M 2 SEM 1233
4 RISHI Chundy 02:44:53 SEM MRI M 3 SEM 1142
5 ROBERT Theophane 02:48:39 SEM REU M 4 SEM 1042
6 YOANN Bruno 02:51:58 SEM REU M 5 SEM 1259
7 ETHEVE Laurent 02:58:47 SEM REU M 6 SEM 1170
8 CARVER Douglas 03:01:34 SEM MRI M 7 SEM 1094
9 TECHER Vincent 03:02:18 SEM REU M 8 SEM 1031
10 FONTAINE Martial 03:03:16 V1M REU M 2 V1M 1257
11 GASPAL Sylvestre 03:05:18 V1M REU M 3 V1M 1263
12 HUGLI Karim 03:05:35 V2M MRI M 1 V2M 1238
13 COLLET Jean Eric 03:08:01 SEM ROD M 9 SEM 1003
14 CHAMPA Rishi 03:09:07 SEM MRI M 10 SEM 1081
15 HOARAU Franco 03:10:38 SEM REU M 11 SEM 1248
16 LUKEA Jeetesh Rao 03:10:39 SEM MRI M 12 SEM 1283
17 LE COURT DE BILLOT Armand 03:11:51 SEM MRI M 13 SEM 1143
18 MAMET Matthieu 03:11:55 SEM MRI M 14 SEM 1049
19 WALKER James 03:12:27 V1M MRI M 4 V1M 1096
20 KASTNER Martin 03:14:27 SEM MRI M 15 SEM 1073
21 HORTENSE Aman 03:15:14 SEM ROD M 16 SEM 1002
22 CIMAN Cecile 03:16:10 SEF REU F 1ere F 1296
23 HIBON Fatima 03:16:10 SEF REU F 1ere F 1069
24 GIBRALTA Alfred 03:17:31 V1M REU M 5 V1M 1166
25 PAYET Alain 03:18:24 V1M REU M 6 V1M 1254
26 VIENNE Didier 03:18:26 V1M REU M 7 V1M 1261
27 BOYER Jean Freddy 03:18:28 SEM REU M 17 SEM 1275
28 JACQUENET John 03:18:31 SEM REU M 18 SEM 1214
29 FAYOLLE Henri 03:19:46 SEM MRI M 19 SEM 1047
30 DORLA Jean Alexien 03:20:51 V1M REU M 8 V1M 1260
31 ETIENNE Denis 03:23:02 SEM MRI M 20 SEM 1095
32 TRELEAVEN Gina 03:24:29 SEF RSA F 3eme F 1289
33 VICTOIRE Henrico 03:24:44 V1M REU M 9 V1M 1155
34 GAUNGOO Balkrishna 03:26:01 V1M MRI M 10 V1M 1276
35 TRELEAVEN Ross 03:26:03 SEM RSA M 21 SEM 1269
36 GRENOUILLE Eric 03:28:21 V1M MRI M 11 V1M 1252
37 CROUS Arno 03:31:08 V1M MRI M 12 V1M 1291
38 FRANCOIS Joseph Mennery 03:32:07 V1M ROD M 13 V1M 1005
39 MAREUX Eugenie 03:34:04 SEF REU F 4eme F 1234
40 AUGUSTE Benjamin 03:38:59 SEM MRI M 22 SEM 1162
41 CASTLE David 03:39:09 V1M GBR M 14 V1M 1054
42 DIJOUX Alfred 03:39:37 V2M REU M 2 V2M 1165
43 DUNOD Alexandre 03:40:46 SEM MRI M 23 SEM 1059
44 NAGUIN Jean Claude 03:41:45 V2M REU M 3 V2M 1195
45 MARDEMOOTOO Kaviraj 03:42:46 SEM MRI M 24 SEM 1196
46 FOLIO Fabrice 03:43:27 V1M REU M 15 V1M 1217
47 LENOIR Fabienne 03:45:36 SEF MRI F 5eme F 1067
48 NEAL Matthew 03:46:04 V1M GBR M 16 V1M 1039
49 BOULANGER Fabrice 03:50:26 SEM REU M 25 SEM 1027
50 MERVEN Julian 03:50:32 SEM MRI M 26 SEM 1026
51 PLANEL Stephane 03:50:35 SEM MRI M 27 SEM 1268
52 AH LOW Samuel 03:50:51 SEM MRI M 28 SEM 1199
53 PRANESH Lallmon 03:51:04 V1M MRI M 17 V1M 1123
54 TUYAU Clarina 03:51:59 SEF MRI F 6 SEF 1182
55 SAUTRON Anthony 03:52:59 SEM REU M 29 SEM 1141
56 MIETTON Lauriane 03:55:32 SEF MRI F 7 SEF 1099
57 CARTWRIGHT Tim 03:55:35 SEM MRI M 30 SEM 1023
58 DE RAVEL Hubert 03:58:19 SEM MRI M 31 SEM 1225
59 GOILOT Laurence 03:58:44 SEF MRI F 8 SEF 1011
60 SPECHT David 03:58:48 V1M REU M 18 V1M 1290
61 DAWSON Robert 03:58:52 V1M RSA M 19 V1M 1231
62 BOYER David 03:59:33 SEM REU M 32 SEM 1169
63 BAX Renaud 04:00:13 SEM MRI M 33 SEM 1097
64 SUNEE Bhima 04:02:45 V1M MRI M 20 V1M 1132
65 LE BLANC Mathieu 04:04:19 SEM MRI M 34 SEM 1001
66 YANN Goblet 04:05:26 SEM MRI M 35 SEM 1105
67 MAMET Gontran 04:07:32 SEM MRI M 36 SEM 1007
68 BATHFIELD Nicolas 04:07:55 SEM MRI M 37 SEM 1074
69 CHAN LIN FAT Bernard 04:08:23 SEM MRI M 38 SEM 1087
70 SACKS Jonty 04:08:59 SEM RSA M 39 SEM 1287
71 LE COURT DE BILLOT Didier 04:09:02 V2M MRI M 4 V2M 1108
72 POUPPEVILLE Cedric 04:09:36 SEM REU M 40 SEM 1140
73 MBONG EKWOGE Hudson 04:10:04 SEM MRI M 41 SEM 1236
74 CORNIQUET Eric 04:10:09 SEM MRI M 42 SEM 1071
75 MICKAEL Lepinay 04:10:14 SEM REU M 43 SEM 1245
76 DRIVER Percy 04:10:57 SEM MRI M 44 SEM 1152
77 LEOCADIE Lucien 04:11:13 V2M REU M 5 V2M 1194
78 DESVAUX DE MARIGNY Romain 04:11:32 SEM MRI M 45 SEM 1127
79 RIVET Mathieu 04:11:36 V1M MRI M 21 V1M 1111
80 MACQUET Jerome 04:11:49 SEM MRI M 46 SEM 1024
81 DOGER DE SPEVILLE Patricia 04:12:09 V2F MRI F 1 V2F 1172
82 DIXON Andy 04:12:16 V1M GBR M 22 V1M 1052
83 SENEQUE Olivier 04:13:25 SEM MRI M 47 SEM 1251
84 GRONDIN Jean Bernard 04:13:59 V1M REU M 23 V1M 1204
85 CAMOIN Jean Noel 04:13:59 V2M MRI M 6 V2M 1063
86 CELERI Desire Alexandre 04:15:45 SEM MRI M 48 SEM 1135
87 GRONDIN David 04:16:03 SEM REU M 49 SEM 1030
88 CARRE Jean Philippe 04:16:43 SEM MRI M 50 SEM 1178
89 HAU Andrew 04:17:41 SEM MRI M 51 SEM 1028
90 LEBON Guilliano 04:19:00 SEM MRI M 52 SEM 1022
91 DERAND Pascal 04:19:51 SEM REU M 53 SEM 1240
92 GUILLOT Marc 04:19:52 V1M REU M 24 V1M 1249
93 DHAWOL Dewanand 04:20:01 V2M MRI M 7 V2M 1134
94 ADRIEN Didier 04:20:24 SEM MRI M 54 SEM 1082
95 ROMEO Yannick 04:21:43 SEM MRI M 55 SEM 1241
96 DESVAUX Valentin 04:23:17 SEM MRI M 56 SEM 1295
97 DELEPLANCQUE Victor 04:24:08 SEM MRI M 57 SEM 1102
98 BIZOUERNE Luc 04:27:06 V1M RUN ODYSSEA M 25 V1M 1010
99 LUCAS Garcia 04:27:07 SEM REU M 58 SEM 1006
100 LE BLANC Jean Paul 04:28:29 V2M MRI M 8 V2M 1227
101 ISAMBOURG Jean Luc 04:28:31 V1M MRI M 26 V1M 1038
102 MULLER Mark 04:28:43 SEM MRI M 59 SEM 1131
103 MERVIN Cathian 04:30:15 SEM MRI M 60 SEM 1008
104 WONG Wei Ming 04:30:18 SEF UAE F 9 SEF 1279
105 COOTHOOPERMAL Didier 04:30:51 SEM MRI M 61 SEM 1278
106 SHEWTOHUL Shiv 04:33:29 V1M ROD M 27 V1M 1104
107 BESTEL Kristina 04:33:49 SEF MRI F 10 SEF 1110
108 SAUZIER Anthony 04:33:56 SEM MRI M 62 SEM 1158
109 LAM KAI LEUNG Yannick 04:34:36 SEM MRI M 63 SEM 1136
110 CAESENS KOENIG Loic 04:34:49 SEM MRI M 64 SEM 1139
111 HAREL Jeannick 04:35:31 SEF MRI F 11 SEF 1058
112 CHOOLUN Raj Kumar 04:38:03 V2M MRI M 9 V2M 1066
113 DINALLY Kerr 04:38:06 V2M MRI M 10 V2M 1256
114 CAIRNS Terry 04:38:17 V2M AUS M 11 V2M 1219
115 JEAN HUGUES Balthazar 04:38:40 V1M MRI M 28 V1M 1167
116 JHABEEMISSUR Clifford 04:38:56 SEM MRI M 65 SEM 1212
117 RABOT KEISLER Sabrina 04:39:03 SEF MRI F 12 SEF 1191
118 SEEBALUCK Sheila 04:39:10 V1F MRI F 1 V1F 1029
119 LUZ Jean Christophe 04:39:43 V1M MRI M 29 V1M 1041
120 ADAM Benoit 04:40:21 SEM MRI M 66 SEM 1228
121 SAUZIER Emmanuel 04:41:23 SEM MRI M 67 SEM 1090
122 NAIRAC Edouard 04:41:24 SEM MRI M 68 SEM 1185
123 MADUB Kunal 04:41:25 SEM MRI M 69 SEM 1034
124 BOYER Georges Emile 04:41:55 V2M REU M 12 V2M 1272
125 VIGER Nadine 04:42:38 V1F MRI F 2 V1F 1060
126 DAWSON Michael 04:43:29 SEM RSA M 70 SEM 1232
127 DE RAVEL Jean Pierre 04:45:22 V2M MRI M 13 V2M 1057
128 DUCHENNE Francois 04:45:24 V2M MRI M 14 V2M 1221
129 DELACRETAZ Sophia 04:46:26 SEF MRI F 13 SEF 1211
130 JEAN CLAUDE Delacretaz 04:46:28 V2M MRI M 15 V2M 1177
131 BEGUE Aurelio 04:48:55 V1M ROD M 30 V1M 1004
132 WADE Dominic 04:49:27 V1M MRI M 31 V1M 1176
133 ISAMBOURG Catherine 04:50:02 V1F MRI F 3 V1F 1037
134 LALLEMAND Marie 04:50:51 V1F REU F 4 V1F 1273
135 JOLIVET Pierre 04:50:54 V1M FRA M 32 V1M 1129
136 JOLIVET Vincent 04:51:38 SEM MRI M 71 SEM 1125
137 FAUSTIN Serge Marc 04:52:04 V1M MRI M 33 V1M 1116
138 DOGER DE SPEVILLE Vanessa 04:52:43 SEF MRI F 14 SEF 1237
139 MUDHOO Mooneshwar 04:53:26 V1M MRI M 34 V1M 1161
140 PETIT Jean Luc 04:54:10 V1M MRI M 35 V1M 1244
141 CHRISTOPHE Legrand 04:54:20 V1M MRI M 36 V1M 1098
142 AUBEELUCK Yoganand Sing 04:54:24 V1M MRI M 37 V1M 1220
143 SCOTT Simon 04:54:49 SEM MRI M 72 SEM 1151
144 DE SOUSA NETO David 04:56:14 V1M MRI M 38 V1M 1056
145 RENNEVILLE Damien 04:56:27 SEM REU M 73 SEM 1266
146 FERRIE Vlassia 04:56:53 SEF MRI F 15 SEF 1130
147 DEMARI Michel 04:57:42 SEM MRI M 74 SEM 1198
148 AHKEE Alain Jean Noel 04:57:59 V2M MRI M 16 V2M 1048
149 BOLTON Kenneth 04:59:04 V2M RSA M 17 V2M 1205
150 LANAPPE Vanessa 04:59:16 SEF MRI F 16 SEF 1207
151 STRANG Timothy 04:59:58 SEM RSA M 75 SEM 1265
152 SEMBHOO Virikshit 05:01:39 SEM MRI M 76 SEM 1284
153 KOENIG Frederic 05:02:51 V1M MRI M 39 V1M 1103
154 TSE SIK SUN Mathieu 05:02:51 SEM MRI M 77 SEM 1183
155 POINTU Sarah 05:03:49 SEF MRI F 17 SEF 1226
156 EPHIGENE Eric Michael 05:04:14 V2M MRI M 18 V2M 1075
157 ROGER Olivier 05:04:14 V1M FRA M 40 V1M 1138
158 QUENETTE Gilles 05:04:23 V2M MRI M 19 V2M 1119
159 JOUVENOT Francinet 05:04:38 V1M REU M 41 V1M 1215
160 BABILLON Bruno 05:04:40 SEM REU M 78 SEM 1216
161 STEPHEN Min Shing 05:04:40 SEM MRI M 79 SEM 1046
162 HALGAND Amaury 05:05:47 SEM MRI M 80 SEM 1181
163 BRUNO Savrimootoo 05:06:21 SEM MRI M 81 SEM 1080
164 MOOTIEN Pamela 05:06:32 V2F MRI F 2 V2F 1160
165 ALIPHON Valerie 05:06:39 SEF MRI F 18 SEF 1286
166 MILLIERE Alexandre 05:06:59 SEM MRI M 82 SEM 1070
167 GIVRAN Yannick 05:09:12 SEM REU M 83 SEM 1218
168 EVE MORGANE Lagesse 05:11:51 SEF MRI F 19 SEF 1100
169 JEAN PHILIPPE Lagesse 05:11:53 V2M MRI M 20 V2M 1101
170 MARIE HELENE Lagesse 05:13:07 V1F MRI F 5 V1F 1247
171 SAWUCK Deepak 05:13:09 V1M MRI M 42 V1M 1145
172 ADRIAN BUNDHOOA Kevin 05:13:27 SEM MRI M 84 SEM 1153
173 MCCORMICK Rory 05:16:34 SEM MRI M 85 SEM 1128
174 FABIEN Jurczak 05:17:34 SEM MRI M 86 SEM 1079
175 MOOTOOVEEREN Jerome 05:18:44 SEM MRI M 87 SEM 1021
176 CAROSIN Mathieu 05:19:42 SEM MRI M 88 SEM 1114
177 APPAYA Ashley 05:20:38 SEM MRI M 89 SEM 1148
178 MUIR John 05:21:24 SEM MRI M 90 SEM 1210
179 ALBERT Mario 05:22:11 SEM MRI M 91 SEM 1171
180 COOPER Deborah 05:22:49 V1F MRI F 6 V1F 1246
181 NUNDRAN Deoraz 05:25:10 V1M MRI M 43 V1M 1235
182 CLEMENT Jules 05:25:11 V1M REU M 44 V1M 1192
183 DOMANE Jiovany 05:25:51 SEM MRI M 92 SEM 1091
184 MARIMAO Annie 05:26:15 V1F REU F 7 V1F 1274
185 CADET Nicolas 05:26:16 SEM REU M 93 SEM 1193
186 TAPPERT Jan 05:26:59 SEM GER M 94 SEM 1093
187 NAIDOO Rajini 05:28:56 SEF MRI F 20 SEF 1033
188 ROUGET Roy 05:29:09 SEM MRI M 95 SEM 1180
189 BLIN Peggy 05:29:32 V1F MRI F 8 V1F 1184
190 SINIMALE Francois 05:29:35 SEM REU M 96 SEM 1258
191 CUVELIER Frederic 05:29:37 V1M REU M 45 V1M 1250
192 FAYOLLE Brigitte 05:30:15 V2F MRI F 3 V2F 1149
193 GIRAUD Pascal 05:30:57 V1M MRI M 46 V1M 1255
194 ANTONIO Doris 05:33:13 V1F MRI F 9 V1F 1187
195 PASCAL LAURENT Begue 05:33:41 SEM REU M 97 SEM 1197
196 MC INTYRE Christopher 05:37:02 V1M MRI M 47 V1M 1146
197 RADFORD Amy 05:37:43 SEF GBR F 21 SEF 1036
198 PRIETO ADANERO Paloma 05:38:15 V1F MRI F 10 V1F 1086
199 PRIETO ADANERO Miguel Angel 05:38:17 V1M ESP M 48 V1M 1089
200 MAY Anthony 05:39:15 V1M MRI M 49 V1M 1206
201 FELIX Monique 05:40:50 V2F REU F 4 V2F 1262
202 BAX DE KEATING Herve 05:41:09 V2M MRI M 21 V2M 1035
203 SPECHT Sylvie 05:42:36 SEF REU F 22 SEF 1200
204 PESCETTO Edward 05:43:50 SEM MRI M 98 SEM 1115
205 LEE Daryl 05:44:30 SEM MRI M 99 SEM 1190
206 RAJCOMAR Reshma 05:45:01 SEF MRI F 23 SEF 1168
207 CELESTIN Jean Claude 05:45:21 V2M MRI M 22 V2M 1015
208 RABOUD AMOORDON Sheron 05:47:50 SEF MRI F 24 SEF 1077
209 MAGEMBE Valerie 05:47:59 SEF MRI F 25 SEF 1174
210 AMOORDON Bernard 05:48:35 SEM MRI M 100 SEM 1076
211 STRANG Simon 05:49:31 SEM RSA M 101 SEM 1264
212 AYALOO Kumaren 05:49:35 SEM MRI M 102 SEM 1179
213 GOPAL Geraldine 05:58:07 SEF MRI F 26 SEF 1083
214 THIELE Brian 05:59:55 V2M MAD M 23 V2M 1156
215 VERBARD Anathalie 06:00:36 SEF REU F 27 SEF 1230
216 DUCHENNE Patrick 06:07:31 V2M MRI M 24 V2M 1209
217 RAGOTIN David 06:07:41 SEM MRI M 103 SEM 1107
218 APPADOO Ronee 06:08:09 SEM MRI M 104 SEM 1189
219 BAJOO Pascal 06:08:14 V1M MRI M 50 V1M 1157
220 KRIGE Willem 06:08:18 V2M RSA M 25 V2M 1281
221 CHARLES Clifford 06:08:52 V1M MRI M 51 V1M 1154
222 PATRICK Anodin 06:08:52 V2M MRI M 26 V2M 1159
223 HARIRAMANI Deepak 06:10:03 V1M MRI M 52 V1M 1288
224 KOK SHUN Raymond 06:11:40 V2M MRI M 27 V2M 1117
225 LI YUET CHEONG Steven 06:12:55 SEM MRI M 105 SEM 1280
226 NG TAT MEW Quinzino 06:15:49 SEM MRI M 106 SEM 1270
227 MADOO Chutturgoon 06:18:34 V2M MRI M 28 V2M 1133
228 BOUCICAUD Florence 06:20:46 V1F REU F 11 V1F 1282
229 SITTIREIN Kaliapermal 06:27:23 SEM MRI M 107 SEM 1150
230 JOHNSON Mark 06:27:25 SEM MRI M 108 SEM 1243
231 CAIRNS Gillian 06:28:01 V2F AUS F 5 V2F 1213
232 CHITCHONG Daniel 06:31:17 V2M MRI M 29 V2M 1144
233 RAMRUTTUN Sadesh 06:35:39 SEM MRI M 109 SEM 1271
234 JUNIUS Celine 06:45:25 V1F FRA F 12 V1F 1137
235 NUNDRAN Sheela 06:48:26 SEF MRI F 28 SEF 1229
236 AH CHAM Li Kim Wong 06:51:15 V1M MRI M 53 V1M 1186
237 SOOKDIN Jessy 06:52:21 SEM MRI M 110 SEM 1018
238 LUZ Helene 06:52:21 SEF MRI F 29 SEF 1040
239 DABEE Mahendrasingh 06:56:10 V2M REU M 30 V2M 1113
240 VIGIE Claude 07:06:11 SEM REU M 111 SEM 1120
241 PAREATHUMBY Baby 07:08:00 V2M MRI M 31 V2M 1292
242 JOCELYN Jessica 07:12:55 SEF MRI F 30 SEF 1109
243 BRISTOW Bruce 07:18:18 V1M MRI M 54 V1M 1126
244 BILLON Dominique 07:38:26 V2M MRI M 32 V2M 1285
245 YERRIAH Kaviraj 07:40:21 SEM MRI M 112 SEM 1121
246 ICHAMAH Kurrun 07:59:36 SEM MRI M 113 SEM 1020
247 OOSMAN Annabelle 08:02:33 SEF MRI F 31 SEF 1045
248 AH LOW Jeff 08:14:41 V2M MRI M 33 V2M 1032
249 AYOUNG Louis Nicolas 08:14:45 V2M MRI M 34 V2M 1064
250 LI Noel 08:47:47 V2M MRI M 35 V2M 1122
251 VAN WYK Wynandt 09:24:46 SEM MRI M 114 SEM 1025
252 SHAH BALKISSOON Mahatejasvi 11:16:22 SEM MRI M 115 SEM 1013
253 YOGESHWAREE Ballea 11:16:25 SEF MRI F 32 SEF 1012


ReferencementCe site est listé dans la catégorie Sport : Sports extrêmes Dictionnaire
| Accueil | La Réunion  Vue du ciel | Météo | Cyclones | Volcan | Cirques de Mafate , Cilaos , Salazie | Photos Randonnées | Randonnées Réunion: Randos Espiègle , Courses montagne | Diagonale des Fous |  Marathon des Sables | Voyages Les stats du site | Fonds écran | Plan du site | Blog de runraid | Galerie photos Sport Réunion |